TimeEST,TemperatureF,Dew PointF,Humidity,Sea Level PressureIn,VisibilityMPH,Wind Direction,Wind SpeedMPH,Gust SpeedMPH,PrecipitationIn,Events,Conditions,WindDirDegrees,DateUTC
12:14 AM,30.2,21.2,69,29.93,10.0,West,13.8,28.8,N/A,,Overcast,260,2013-02-12 05:14:00
12:33 AM,30.2,21.2,69,29.94,10.0,West,11.5,26.5,N/A,,Overcast,270,2013-02-12 05:33:00
12:52 AM,30.9,21.9,69,29.98,10.0,West,13.8,25.3,N/A,,Overcast,260,2013-02-12 05:52:00
1:52 AM,30.9,21.9,69,30.00,10.0,WSW,13.8,20.7,N/A,,Overcast,250,2013-02-12 06:52:00
2:52 AM,30.0,21.0,69,30.01,10.0,West,9.2,-,N/A,,Overcast,270,2013-02-12 07:52:00
3:52 AM,30.0,21.9,72,30.02,10.0,West,8.1,18.4,N/A,,Overcast,280,2013-02-12 08:52:00
4:52 AM,30.0,21.0,69,30.03,10.0,West,11.5,19.6,N/A,,Overcast,260,2013-02-12 09:52:00
5:52 AM,30.0,21.0,69,30.05,10.0,West,11.5,24.2,N/A,,Overcast,260,2013-02-12 10:52:00
6:52 AM,28.9,21.9,75,30.06,10.0,West,10.4,-,N/A,,Overcast,260,2013-02-12 11:52:00
7:52 AM,28.9,21.9,75,30.08,10.0,West,9.2,17.3,N/A,,Overcast,260,2013-02-12 12:52:00
8:52 AM,28.9,21.9,75,30.09,10.0,WSW,10.4,16.1,N/A,,Overcast,240,2013-02-12 13:52:00
9:52 AM,30.0,21.9,72,30.10,10.0,WSW,9.2,-,N/A,,Overcast,250,2013-02-12 14:52:00
10:52 AM,30.0,21.9,72,30.11,10.0,WSW,12.7,-,N/A,,Overcast,240,2013-02-12 15:52:00
11:52 AM,30.9,23.0,72,30.08,10.0,WSW,10.4,18.4,N/A,,Overcast,240,2013-02-12 16:52:00
12:52 PM,35.1,25.0,67,30.07,10.0,SW,11.5,17.3,N/A,,Overcast,230,2013-02-12 17:52:00
1:52 PM,36.0,25.0,64,29.98,10.0,Variable,6.9,-,N/A,,Mostly Cloudy,0,2013-02-12 18:52:00
2:03 PM,35.6,24.8,65,29.94,10.0,SW,6.9,-,N/A,,Scattered Clouds,230,2013-02-12 19:03:00
2:52 PM,37.9,26.1,62,29.99,10.0,SSW,12.7,18.4,N/A,,Clear,210,2013-02-12 19:52:00
3:52 PM,39.0,26.1,60,30.00,10.0,WSW,10.4,17.3,N/A,,Clear,250,2013-02-12 20:52:00
4:52 PM,39.0,26.1,60,29.99,10.0,WSW,11.5,-,N/A,,Clear,240,2013-02-12 21:52:00
5:52 PM,37.0,26.1,65,29.99,10.0,SW,5.8,-,N/A,,Clear,220,2013-02-12 22:52:00
6:52 PM,35.1,25.0,67,29.99,10.0,SW,3.5,-,N/A,,Clear,230,2013-02-12 23:52:00
7:52 PM,34.0,26.1,73,29.97,10.0,Calm,Calm,-,N/A,,Clear,0,2013-02-13 00:52:00
8:52 PM,30.9,25.0,79,29.96,10.0,Calm,Calm,-,N/A,,Clear,0,2013-02-13 01:52:00
9:52 PM,30.0,25.0,82,29.96,10.0,Calm,Calm,-,N/A,,Clear,0,2013-02-13 02:52:00
10:52 PM,30.0,26.1,85,29.94,10.0,Calm,Calm,-,N/A,,Clear,0,2013-02-13 03:52:00
11:52 PM,28.0,25.0,88,29.94,10.0,Calm,Calm,-,N/A,,Clear,0,2013-02-13 04:52:00